Time,TemperatureF,DewpointF,PressureIn,WindDirection,WindDirectionDegrees,WindSpeedMPH,WindSpeedGustMPH,Humidity,HourlyPrecipIn,Conditions,Clouds,dailyrainin,SoftwareType,DateUTC
2013-07-09 00:01:00,65.9,65.0,29.95,ESE,108,2.0,3.0,97,0.00,,CLR,0.56,VWS V14.01,2013-07-09 04:01:00,
2013-07-09 00:06:00,66.0,65.1,29.95,ESE,109,3.0,3.0,97,0.00,,,0.00,VWS V14.01,2013-07-09 04:06:00,
2013-07-09 00:11:00,65.9,65.0,29.95,ESE,114,3.0,3.0,97,0.00,,,0.00,VWS V14.01,2013-07-09 04:11:00,
2013-07-09 00:16:00,65.9,65.0,29.95,ESE,122,4.0,4.0,97,0.00,,,0.00,VWS V14.01,2013-07-09 04:16:00,
2013-07-09 00:21:00,65.9,65.0,29.95,SE,131,4.0,4.0,97,0.00,,,0.00,VWS V14.01,2013-07-09 04:21:00,
2013-07-09 00:26:00,65.9,65.0,29.95,East,96,4.0,4.0,97,0.00,,,0.00,VWS V14.01,2013-07-09 04:26:00,
2013-07-09 00:31:00,65.9,65.0,29.95,East,95,4.0,7.0,97,0.00,,,0.00,VWS V14.01,2013-07-09 04:31:00,
2013-07-09 00:36:00,65.9,65.0,29.95,ESE,115,2.0,3.0,97,0.00,,,0.00,VWS V14.01,2013-07-09 04:36:00,
2013-07-09 00:41:00,65.9,65.0,29.95,SE,128,1.0,2.0,97,0.00,,,0.00,VWS V14.01,2013-07-09 04:41:00,
2013-07-09 00:46:00,65.9,65.0,29.95,ESE,121,2.0,2.0,97,0.00,,,0.00,VWS V14.01,2013-07-09 04:46:00,
2013-07-09 00:51:00,65.9,65.0,29.95,SE,136,1.0,3.0,97,0.00,,,0.00,VWS V14.01,2013-07-09 04:51:00,
2013-07-09 00:57:00,65.9,65.0,29.95,ESE,102,2.0,3.0,97,0.00,,,0.00,VWS V14.01,2013-07-09 04:57:00,
2013-07-09 01:02:00,65.9,65.0,29.95,SE,143,3.0,4.0,97,0.00,,,0.00,VWS V14.01,2013-07-09 05:02:00,
2013-07-09 01:07:00,65.9,65.0,29.95,ESE,120,3.0,3.0,97,0.00,,,0.00,VWS V14.01,2013-07-09 05:07:00,
2013-07-09 01:12:00,65.8,64.9,29.95,SE,140,2.0,3.0,97,0.00,,,0.00,VWS V14.01,2013-07-09 05:12:00,
2013-07-09 01:17:00,65.8,64.9,29.95,ESE,109,2.0,3.0,97,0.00,,,0.00,VWS V14.01,2013-07-09 05:17:00,
2013-07-09 01:22:00,65.8,64.9,29.95,East,101,2.0,2.0,97,0.00,,,0.00,VWS V14.01,2013-07-09 05:22:00,
2013-07-09 01:27:00,65.8,64.9,29.95,East,101,0.0,0.0,97,0.00,,,0.00,VWS V14.01,2013-07-09 05:27:00,
2013-07-09 01:32:00,65.8,64.9,29.95,East,88,2.0,2.0,97,0.00,,,0.00,VWS V14.01,2013-07-09 05:32:00,
2013-07-09 01:37:00,65.8,64.9,29.95,East,90,0.0,0.0,97,0.00,,,0.00,VWS V14.01,2013-07-09 05:37:00,
2013-07-09 01:42:00,65.8,64.9,29.95,East,96,3.0,3.0,97,0.00,,,0.00,VWS V14.01,2013-07-09 05:42:00,
2013-07-09 01:47:00,65.8,64.9,29.96,East,96,2.0,2.0,97,0.00,,,0.00,VWS V14.01,2013-07-09 05:47:00,
2013-07-09 01:52:00,65.8,64.9,29.96,East,82,1.0,2.0,97,0.00,,,0.00,VWS V14.01,2013-07-09 05:52:00,
2013-07-09 01:57:00,65.8,64.9,29.96,East,97,2.0,3.0,97,0.00,,,0.00,VWS V14.01,2013-07-09 05:57:00,
2013-07-09 02:02:00,65.8,64.9,29.96,East,83,3.0,3.0,97,0.00,,,0.00,VWS V14.01,2013-07-09 06:02:00,
2013-07-09 02:07:00,65.9,65.0,29.95,ESE,108,2.0,3.0,97,0.00,,,0.00,VWS V14.01,2013-07-09 06:07:00,
2013-07-09 02:12:00,65.8,64.9,29.95,East,100,3.0,3.0,97,0.00,,,0.00,VWS V14.01,2013-07-09 06:12:00,
2013-07-09 02:17:00,65.9,65.0,29.95,ENE,78,2.0,2.0,97,0.00,,,0.00,VWS V14.01,2013-07-09 06:17:00,
2013-07-09 02:22:00,65.9,65.0,29.95,ENE,78,1.0,1.0,97,0.00,,,0.00,VWS V14.01,2013-07-09 06:22:00,
2013-07-09 02:34:00,66.0,65.1,29.95,East,80,2.0,2.0,97,0.00,,,0.00,VWS V14.01,2013-07-09 06:34:00,
2013-07-09 02:39:00,66.0,65.1,29.95,ENE,77,2.0,2.0,97,0.00,,,0.00,VWS V14.01,2013-07-09 06:39:00,
2013-07-09 02:44:00,66.0,65.1,29.96,NE,46,2.0,2.0,97,0.00,,,0.00,VWS V14.01,2013-07-09 06:44:00,
2013-07-09 02:49:00,66.0,65.1,29.96,ENE,61,2.0,2.0,97,0.00,,,0.00,VWS V14.01,2013-07-09 06:49:00,
2013-07-09 02:54:00,66.0,65.1,29.96,ENE,75,3.0,3.0,97,0.00,,,0.00,VWS V14.01,2013-07-09 06:54:00,
2013-07-09 02:59:00,66.0,65.1,29.96,ENE,74,2.0,2.0,97,0.00,,,0.00,VWS V14.01,2013-07-09 06:59:00,
2013-07-09 03:04:00,66.0,65.1,29.96,ENE,69,1.0,2.0,97,0.00,,,0.00,VWS V14.01,2013-07-09 07:04:00,
2013-07-09 03:09:00,66.0,65.1,29.96,East,88,1.0,1.0,97,0.00,,,0.00,VWS V14.01,2013-07-09 07:09:00,
2013-07-09 03:14:00,66.0,65.1,29.96,East,86,2.0,3.0,97,0.00,,,0.00,VWS V14.01,2013-07-09 07:14:00,
2013-07-09 03:19:00,65.9,65.0,29.96,East,94,2.0,2.0,97,0.00,,,0.00,VWS V14.01,2013-07-09 07:19:00,
2013-07-09 03:24:00,65.9,65.0,29.96,East,85,1.0,1.0,97,0.00,,,0.00,VWS V14.01,2013-07-09 07:24:00,
2013-07-09 03:29:00,65.9,65.0,29.96,East,82,1.0,1.0,97,0.00,,,0.00,VWS V14.01,2013-07-09 07:29:00,
2013-07-09 03:34:00,65.9,65.0,29.95,East,82,1.0,1.0,97,0.00,,,0.00,VWS V14.01,2013-07-09 07:34:00,
2013-07-09 03:39:00,65.9,65.0,29.95,NE,44,1.0,2.0,97,0.00,,,0.00,VWS V14.01,2013-07-09 07:39:00,
2013-07-09 03:44:00,65.7,64.8,29.96,North,11,2.0,2.0,97,0.00,,,0.00,VWS V14.01,2013-07-09 07:44:00,
2013-07-09 03:52:00,65.6,64.7,29.96,North,357,1.0,1.0,97,0.00,,,0.00,VWS V14.01,2013-07-09 07:52:00,
2013-07-09 03:57:00,65.6,64.7,29.95,North,357,0.0,1.0,97,0.00,,,0.00,VWS V14.01,2013-07-09 07:57:00,
2013-07-09 04:02:00,65.5,64.6,29.95,North,357,0.0,0.0,97,0.00,,,0.00,VWS V14.01,2013-07-09 08:02:00,
2013-07-09 04:07:00,65.5,64.6,29.95,North,357,0.0,0.0,97,0.00,,,0.00,VWS V14.01,2013-07-09 08:07:00,
2013-07-09 04:13:00,65.5,64.6,29.95,North,357,0.0,0.0,97,0.00,,,0.00,VWS V14.01,2013-07-09 08:13:00,
2013-07-09 04:18:00,65.5,64.6,29.95,North,357,1.0,1.0,97,0.00,,,0.00,VWS V14.01,2013-07-09 08:18:00,
2013-07-09 04:23:00,65.6,64.7,29.95,North,357,0.0,0.0,97,0.00,,,0.00,VWS V14.01,2013-07-09 08:23:00,
2013-07-09 04:28:00,65.5,64.6,29.95,North,357,0.0,1.0,97,0.00,,,0.00,VWS V14.01,2013-07-09 08:28:00,
2013-07-09 04:33:00,65.5,64.6,29.95,North,357,0.0,0.0,97,0.00,,,0.00,VWS V14.01,2013-07-09 08:33:00,
2013-07-09 04:38:00,65.5,64.6,29.94,NE,44,1.0,1.0,97,0.00,,,0.00,VWS V14.01,2013-07-09 08:38:00,
2013-07-09 04:43:00,65.6,64.7,29.94,East,94,3.0,3.0,97,0.00,,,0.00,VWS V14.01,2013-07-09 08:43:00,
2013-07-09 04:48:00,65.6,64.7,29.94,ENE,73,2.0,2.0,97,0.00,,,0.00,VWS V14.01,2013-07-09 08:48:00,
2013-07-09 04:58:00,65.5,64.9,29.94,ENE,73,2.0,4.0,98,0.00,,,0.00,VWS V14.01,2013-07-09 08:58:00,
2013-07-09 05:03:00,65.4,64.8,29.94,ENE,68,2.0,2.0,98,0.00,,,0.00,VWS V14.01,2013-07-09 09:03:00,
2013-07-09 05:08:00,65.4,64.8,29.94,ENE,63,1.0,1.0,98,0.00,,,0.00,VWS V14.01,2013-07-09 09:08:00,
2013-07-09 05:13:00,65.4,64.8,29.94,ESE,103,3.0,4.0,98,0.00,,,0.00,VWS V14.01,2013-07-09 09:13:00,
2013-07-09 05:18:00,65.3,64.7,29.94,ESE,109,4.0,4.0,98,0.00,,,0.00,VWS V14.01,2013-07-09 09:18:00,
2013-07-09 05:23:00,65.2,64.6,29.94,ESE,107,3.0,4.0,98,0.00,,,0.00,VWS V14.01,2013-07-09 09:23:00,
2013-07-09 05:28:00,65.1,64.5,29.94,ESE,109,3.0,3.0,98,0.00,,,0.00,VWS V14.01,2013-07-09 09:28:00,
2013-07-09 05:33:00,65.1,64.5,29.95,ESE,113,1.0,1.0,98,0.00,,,0.00,VWS V14.01,2013-07-09 09:33:00,
2013-07-09 05:39:00,65.0,64.4,29.95,ESE,112,3.0,3.0,98,0.00,,,0.00,VWS V14.01,2013-07-09 09:39:00,
2013-07-09 05:45:00,64.9,64.3,29.95,ESE,107,1.0,1.0,98,0.00,,,0.00,VWS V14.01,2013-07-09 09:45:00,
2013-07-09 05:50:00,64.9,64.3,29.95,ESE,107,2.0,2.0,98,0.00,,,0.00,VWS V14.01,2013-07-09 09:50:00,
2013-07-09 05:55:00,64.9,64.3,29.95,ESE,107,2.0,2.0,98,0.00,,,0.00,VWS V14.01,2013-07-09 09:55:00,
2013-07-09 06:00:00,64.9,64.3,29.95,ESE,107,0.0,0.0,98,0.00,,,0.00,VWS V14.01,2013-07-09 10:00:00,
2013-07-09 06:05:00,64.9,64.3,29.95,ESE,107,0.0,0.0,98,0.00,,,0.00,VWS V14.01,2013-07-09 10:05:00,
2013-07-09 06:10:00,64.9,64.3,29.95,ESE,107,0.0,0.0,98,0.00,,,0.00,VWS V14.01,2013-07-09 10:10:00,
2013-07-09 06:15:00,64.9,64.3,29.95,ESE,107,0.0,1.0,98,0.00,,,0.00,VWS V14.01,2013-07-09 10:15:00,
2013-07-09 06:20:00,65.0,64.4,29.95,ESE,107,0.0,0.0,98,0.00,,,0.00,VWS V14.01,2013-07-09 10:20:00,
2013-07-09 06:25:00,65.0,64.4,29.95,ESE,107,1.0,2.0,98,0.00,,,0.00,VWS V14.01,2013-07-09 10:25:00,
2013-07-09 06:30:00,65.1,64.5,29.95,ESE,107,0.0,1.0,98,0.00,,,0.00,VWS V14.01,2013-07-09 10:30:00,
2013-07-09 06:35:00,65.3,64.7,29.95,East,100,1.0,1.0,98,0.00,,,0.00,VWS V14.01,2013-07-09 10:35:00,
2013-07-09 06:40:00,65.4,64.8,29.95,East,84,2.0,2.0,98,0.00,,,0.00,VWS V14.01,2013-07-09 10:40:00,
2013-07-09 06:45:00,65.5,64.9,29.96,ENE,59,1.0,1.0,98,0.00,,,0.00,VWS V14.01,2013-07-09 10:45:00,
2013-07-09 06:50:00,65.6,65.0,29.96,ESE,109,3.0,3.0,98,0.00,,,0.00,VWS V14.01,2013-07-09 10:50:00,
2013-07-09 06:55:00,65.7,65.1,29.96,ESE,115,0.0,1.0,98,0.00,,,0.00,VWS V14.01,2013-07-09 10:55:00,
2013-07-09 07:00:00,65.7,65.1,29.96,East,98,1.0,1.0,98,0.00,,,0.00,VWS V14.01,2013-07-09 11:00:00,
2013-07-09 07:05:00,65.8,65.2,29.96,East,98,1.0,2.0,98,0.00,,,0.00,VWS V14.01,2013-07-09 11:05:00,
2013-07-09 07:10:00,65.9,65.3,29.96,East,98,1.0,1.0,98,0.00,,,0.00,VWS V14.01,2013-07-09 11:10:00,
2013-07-09 07:15:00,65.9,65.3,29.96,ESE,104,3.0,4.0,98,0.00,,,0.00,VWS V14.01,2013-07-09 11:15:00,
2013-07-09 07:20:00,66.0,65.4,29.96,SE,138,2.0,2.0,98,0.00,,,0.00,VWS V14.01,2013-07-09 11:20:00,
2013-07-09 07:25:00,66.0,65.4,29.96,ESE,119,3.0,3.0,98,0.00,,,0.00,VWS V14.01,2013-07-09 11:25:00,
2013-07-09 07:30:00,66.1,65.5,29.96,ESE,102,1.0,2.0,98,0.00,,,0.00,VWS V14.01,2013-07-09 11:30:00,
2013-07-09 07:35:00,66.2,65.6,29.95,ESE,118,1.0,2.0,98,0.00,,,0.00,VWS V14.01,2013-07-09 11:35:00,
2013-07-09 07:40:00,66.2,65.6,29.95,ESE,107,1.0,2.0,98,0.00,,,0.00,VWS V14.01,2013-07-09 11:40:00,
2013-07-09 07:45:00,66.3,65.7,29.95,ESE,108,1.0,2.0,98,0.00,,,0.00,VWS V14.01,2013-07-09 11:45:00,
2013-07-09 07:50:00,66.4,65.8,29.95,ESE,108,1.0,2.0,98,0.00,,,0.00,VWS V14.01,2013-07-09 11:50:00,
2013-07-09 07:55:00,66.4,65.8,29.95,ESE,121,3.0,3.0,98,0.00,,,0.00,VWS V14.01,2013-07-09 11:55:00,
2013-07-09 08:00:00,66.5,65.9,29.95,SSE,167,1.0,1.0,98,0.00,,,0.00,VWS V14.01,2013-07-09 12:00:00,
2013-07-09 08:05:00,66.5,65.9,29.95,SW,229,1.0,1.0,98,0.00,,,0.00,VWS V14.01,2013-07-09 12:05:00,
2013-07-09 08:10:00,66.6,66.0,29.95,SSE,157,0.0,1.0,98,0.00,,,0.00,VWS V14.01,2013-07-09 12:10:00,
2013-07-09 08:16:00,66.7,66.1,29.95,SSE,157,0.0,0.0,98,0.00,,,0.00,VWS V14.01,2013-07-09 12:16:00,
2013-07-09 08:21:00,66.8,66.2,29.95,SSE,157,0.0,0.0,98,0.00,,,0.00,VWS V14.01,2013-07-09 12:21:00,
2013-07-09 08:26:00,67.0,66.4,29.96,SSE,157,1.0,1.0,98,0.00,,,0.00,VWS V14.01,2013-07-09 12:26:00,
2013-07-09 08:31:00,67.0,66.4,29.95,SSE,157,0.0,0.0,98,0.00,,,0.00,VWS V14.01,2013-07-09 12:31:00,
2013-07-09 08:36:00,67.0,66.4,29.95,ESE,111,2.0,2.0,98,0.00,,,0.00,VWS V14.01,2013-07-09 12:36:00,
2013-07-09 08:41:00,67.0,66.4,29.95,SSE,161,1.0,2.0,98,0.00,,,0.00,VWS V14.01,2013-07-09 12:41:00,
2013-07-09 08:46:00,67.1,66.5,29.95,SSE,161,0.0,0.0,98,0.00,,,0.00,VWS V14.01,2013-07-09 12:46:00,
2013-07-09 08:51:00,67.3,66.7,29.95,SSE,161,2.0,2.0,98,0.00,,,0.00,VWS V14.01,2013-07-09 12:51:00,
2013-07-09 08:56:00,67.4,66.8,29.95,SE,140,1.0,2.0,98,0.00,,,0.00,VWS V14.01,2013-07-09 12:56:00,
2013-07-09 09:01:00,67.5,66.9,29.95,SSE,159,1.0,2.0,98,0.00,,,0.00,VWS V14.01,2013-07-09 13:01:00,
2013-07-09 09:06:00,67.6,67.0,29.95,ESE,119,2.0,3.0,98,0.00,,,0.00,VWS V14.01,2013-07-09 13:06:00,
2013-07-09 09:11:00,67.7,67.1,29.95,ESE,119,3.0,3.0,98,0.00,,,0.00,VWS V14.01,2013-07-09 13:11:00,
2013-07-09 09:16:00,67.9,67.0,29.95,SE,140,2.0,2.0,97,0.00,,,0.00,VWS V14.01,2013-07-09 13:16:00,
2013-07-09 09:21:00,68.3,67.4,29.95,SSE,162,1.0,2.0,97,0.00,,,0.00,VWS V14.01,2013-07-09 13:21:00,
2013-07-09 09:26:00,68.6,67.4,29.95,South,188,2.0,3.0,96,0.00,,,0.00,VWS V14.01,2013-07-09 13:26:00,
2013-07-09 09:31:00,69.0,67.8,29.95,SE,131,3.0,3.0,96,0.00,,,0.00,VWS V14.01,2013-07-09 13:31:00,
2013-07-09 09:36:00,69.2,67.7,29.95,ESE,102,4.0,5.0,95,0.00,,,0.00,VWS V14.01,2013-07-09 13:36:00,
2013-07-09 09:41:00,69.5,68.0,29.94,SSE,151,2.0,3.0,95,0.00,,,0.00,VWS V14.01,2013-07-09 13:41:00,
2013-07-09 09:46:00,69.8,68.0,29.94,ESE,122,4.0,5.0,94,0.00,,,0.00,VWS V14.01,2013-07-09 13:46:00,
2013-07-09 09:51:00,69.9,67.8,29.94,SE,128,3.0,4.0,93,0.00,,,0.00,VWS V14.01,2013-07-09 13:51:00,
2013-07-09 09:56:00,70.1,68.0,29.94,SE,133,3.0,4.0,93,0.00,,,0.00,VWS V14.01,2013-07-09 13:56:00,
2013-07-09 10:01:00,70.3,67.6,29.94,ESE,112,2.0,2.0,91,0.00,,,0.00,VWS V14.01,2013-07-09 14:01:00,
2013-07-09 10:06:00,70.5,67.8,29.94,SE,130,3.0,4.0,91,0.00,,,0.00,VWS V14.01,2013-07-09 14:06:00,
2013-07-09 10:11:00,70.7,67.6,29.95,East,101,3.0,3.0,90,0.00,,,0.00,VWS V14.01,2013-07-09 14:11:00,
2013-07-09 10:16:00,71.0,67.9,29.95,SE,144,2.0,2.0,90,0.00,,,0.00,VWS V14.01,2013-07-09 14:16:00,
2013-07-09 10:21:00,71.3,68.2,29.95,ESE,115,4.0,4.0,90,0.00,,,0.00,VWS V14.01,2013-07-09 14:21:00,
2013-07-09 10:26:00,71.3,67.6,29.94,SE,132,2.0,2.0,88,0.00,,,0.00,VWS V14.01,2013-07-09 14:26:00,
2013-07-09 10:31:00,71.5,67.4,29.94,ESE,119,3.0,3.0,87,0.00,,,0.00,VWS V14.01,2013-07-09 14:31:00,
2013-07-09 10:36:00,71.5,67.4,29.95,ESE,119,0.0,0.0,87,0.00,,,0.00,VWS V14.01,2013-07-09 14:36:00,
2013-07-09 10:41:00,71.8,67.4,29.94,SE,139,1.0,3.0,86,0.00,,,0.00,VWS V14.01,2013-07-09 14:41:00,
2013-07-09 10:46:00,72.1,67.7,29.93,SE,130,2.0,2.0,86,0.00,,,0.00,VWS V14.01,2013-07-09 14:46:00,
2013-07-09 10:51:00,72.4,67.6,29.93,East,89,0.0,0.0,85,0.00,,,0.00,VWS V14.01,2013-07-09 14:51:00,
2013-07-09 10:56:00,72.9,67.8,29.93,ESE,120,1.0,1.0,84,0.00,,,0.00,VWS V14.01,2013-07-09 14:56:00,
2013-07-09 11:01:00,73.4,67.9,29.93,ENE,76,1.0,1.0,83,0.00,,,0.00,VWS V14.01,2013-07-09 15:01:00,
2013-07-09 11:06:00,73.4,67.9,29.93,SE,134,3.0,3.0,83,0.00,,,0.00,VWS V14.01,2013-07-09 15:06:00,
2013-07-09 11:11:00,73.4,68.3,29.92,East,94,4.0,6.0,84,0.00,,,0.00,VWS V14.01,2013-07-09 15:11:00,
2013-07-09 11:16:00,73.2,67.7,29.92,ESE,117,3.0,4.0,83,0.00,,,0.00,VWS V14.01,2013-07-09 15:16:00,
2013-07-09 11:21:00,73.1,68.0,29.92,East,88,3.0,4.0,84,0.00,,,0.00,VWS V14.01,2013-07-09 15:21:00,
2013-07-09 11:26:00,73.6,68.8,29.92,East,98,7.0,8.0,85,0.00,,,0.00,VWS V14.01,2013-07-09 15:26:00,
2013-07-09 11:31:00,74.2,68.4,29.92,ESE,117,8.0,8.0,82,0.00,,,0.00,VWS V14.01,2013-07-09 15:31:00,
2013-07-09 11:36:00,74.4,68.2,29.92,East,98,6.0,7.0,81,0.00,,,0.00,VWS V14.01,2013-07-09 15:36:00,
2013-07-09 11:41:00,74.8,67.9,29.92,ESE,118,7.0,8.0,79,0.00,,,0.00,VWS V14.01,2013-07-09 15:41:00,
2013-07-09 11:46:00,74.7,68.1,29.91,East,101,8.0,8.0,80,0.00,,,0.00,VWS V14.01,2013-07-09 15:46:00,
2013-07-09 11:51:00,74.7,68.5,29.91,ESE,117,8.0,8.0,81,0.00,,,0.00,VWS V14.01,2013-07-09 15:51:00,
2013-07-09 11:56:00,75.1,68.5,29.91,SE,130,7.0,11.0,80,0.00,,,0.00,VWS V14.01,2013-07-09 15:56:00,
2013-07-09 12:01:00,75.1,68.2,29.91,East,90,4.0,4.0,79,0.00,,,0.00,VWS V14.01,2013-07-09 16:01:00,
2013-07-09 12:06:00,75.5,68.9,29.91,ESE,102,8.0,12.0,80,0.00,,,0.00,VWS V14.01,2013-07-09 16:06:00,
2013-07-09 12:11:00,75.7,69.1,29.90,SE,138,8.0,9.0,80,0.00,,,0.00,VWS V14.01,2013-07-09 16:11:00,
2013-07-09 12:16:00,75.9,68.9,29.90,SE,140,1.0,2.0,79,0.00,,,0.00,VWS V14.01,2013-07-09 16:16:00,
2013-07-09 12:21:00,76.2,68.8,29.90,ESE,116,7.0,7.0,78,0.00,,,0.00,VWS V14.01,2013-07-09 16:21:00,
2013-07-09 12:26:00,76.2,69.2,29.90,South,171,2.0,3.0,79,0.00,,,0.00,VWS V14.01,2013-07-09 16:26:00,
2013-07-09 12:32:00,76.1,68.8,29.91,ESE,105,8.0,8.0,78,0.00,,,0.00,VWS V14.01,2013-07-09 16:32:00,
2013-07-09 12:37:00,76.0,68.7,29.91,SE,126,4.0,4.0,78,0.00,,,0.00,VWS V14.01,2013-07-09 16:37:00,
2013-07-09 12:42:00,76.2,68.8,29.91,ESE,117,2.0,4.0,78,0.00,,,0.00,VWS V14.01,2013-07-09 16:42:00,
2013-07-09 12:47:00,76.8,69.8,29.90,SW,227,5.0,7.0,79,0.00,,,0.00,VWS V14.01,2013-07-09 16:47:00,
2013-07-09 12:52:00,77.0,69.2,29.90,East,95,3.0,4.0,77,0.00,,,0.00,VWS V14.01,2013-07-09 16:52:00,
2013-07-09 12:57:00,77.0,69.2,29.89,East,96,10.0,10.0,77,0.00,,,0.00,VWS V14.01,2013-07-09 16:57:00,
2013-07-09 13:02:00,77.2,69.1,29.90,SSW,213,3.0,3.0,76,0.00,,,0.00,VWS V14.01,2013-07-09 17:02:00,
2013-07-09 13:07:00,77.4,69.2,29.90,ESE,121,2.0,3.0,76,0.00,,BKN002,0.00,VWS V14.01,2013-07-09 17:07:00,
2013-07-09 13:12:00,77.2,69.1,29.90,ESE,119,4.0,4.0,76,0.00,,BKN002,0.00,VWS V14.01,2013-07-09 17:12:00,
2013-07-09 13:17:00,77.5,69.7,29.90,SSE,156,2.0,3.0,77,0.00,,BKN002,0.00,VWS V14.01,2013-07-09 17:17:00,
2013-07-09 13:22:00,78.1,69.1,29.90,NNW,331,2.0,2.0,74,0.00,,BKN002,0.00,VWS V14.01,2013-07-09 17:22:00,
2013-07-09 13:27:00,77.9,69.3,29.90,North,11,5.0,5.0,75,0.00,,BKN002,0.00,VWS V14.01,2013-07-09 17:27:00,
2013-07-09 13:32:00,76.9,68.8,29.90,NNW,335,8.0,8.0,76,0.00,,BKN002,0.00,VWS V14.01,2013-07-09 17:32:00,
2013-07-09 13:37:00,75.9,68.6,29.90,NW,318,9.0,10.0,78,0.00,,BKN002,0.00,VWS V14.01,2013-07-09 17:37:00,
2013-07-09 13:42:00,74.9,67.6,29.91,NW,306,7.0,9.0,78,0.00,,BKN002,0.00,VWS V14.01,2013-07-09 17:42:00,
2013-07-09 13:47:00,74.5,68.3,29.90,West,279,4.0,6.0,81,0.00,,BKN002,0.00,VWS V14.01,2013-07-09 17:47:00,
2013-07-09 13:52:00,74.2,68.0,29.91,NNW,328,5.0,6.0,81,0.00,,BKN002,0.00,VWS V14.01,2013-07-09 17:52:00,
2013-07-09 13:57:00,73.9,67.7,29.90,WNW,282,4.0,5.0,81,0.00,,BKN002,0.00,VWS V14.01,2013-07-09 17:57:00,
2013-07-09 14:02:00,73.8,68.0,29.90,NNW,335,3.0,7.0,82,0.00,,BKN002,0.00,VWS V14.01,2013-07-09 18:02:00,
2013-07-09 14:07:00,73.9,68.1,29.90,WNW,298,5.0,5.0,82,0.00,,CLR,0.00,VWS V14.01,2013-07-09 18:07:00,
2013-07-09 14:12:00,73.9,68.1,29.90,WNW,290,9.0,9.0,82,0.00,,CLR,0.00,VWS V14.01,2013-07-09 18:12:00,
2013-07-09 14:17:00,73.9,68.1,29.89,NNW,331,5.0,6.0,82,0.00,,CLR,0.00,VWS V14.01,2013-07-09 18:17:00,
2013-07-09 14:22:00,73.8,67.6,29.89,West,274,3.0,5.0,81,0.00,,CLR,0.00,VWS V14.01,2013-07-09 18:22:00,
2013-07-09 14:27:00,73.5,67.7,29.89,NNW,346,2.0,3.0,82,0.00,,CLR,0.00,VWS V14.01,2013-07-09 18:27:00,
2013-07-09 14:32:00,73.6,67.8,29.89,WNW,291,2.0,3.0,82,0.00,,CLR,0.00,VWS V14.01,2013-07-09 18:32:00,
2013-07-09 14:37:00,73.9,68.4,29.88,WNW,282,2.0,2.0,83,0.00,,CLR,0.00,VWS V14.01,2013-07-09 18:37:00,
2013-07-09 14:42:00,74.4,68.6,29.88,WNW,300,3.0,4.0,82,0.00,,CLR,0.00,VWS V14.01,2013-07-09 18:42:00,
2013-07-09 14:47:00,74.7,68.5,29.88,NW,320,5.0,7.0,81,0.00,,CLR,0.00,VWS V14.01,2013-07-09 18:47:00,
2013-07-09 14:52:00,75.1,68.5,29.88,NNW,335,4.0,4.0,80,0.00,,CLR,0.00,VWS V14.01,2013-07-09 18:52:00,
2013-07-09 14:57:00,75.4,69.2,29.87,NW,319,8.0,8.0,81,0.00,,CLR,0.00,VWS V14.01,2013-07-09 18:57:00,
2013-07-09 15:02:00,75.6,68.6,29.87,NNW,343,4.0,4.0,79,0.00,,CLR,0.00,VWS V14.01,2013-07-09 19:02:00,
2013-07-09 15:07:00,75.5,68.2,29.86,WNW,283,4.0,4.0,78,0.00,,CLR,0.00,VWS V14.01,2013-07-09 19:07:00,
2013-07-09 15:12:00,75.3,68.7,29.87,NW,323,2.0,3.0,80,0.00,,CLR,0.00,VWS V14.01,2013-07-09 19:12:00,
2013-07-09 15:17:00,75.5,69.3,29.87,West,279,6.0,6.0,81,0.00,,CLR,0.00,VWS V14.01,2013-07-09 19:17:00,
2013-07-09 15:22:00,75.7,69.1,29.87,WSW,244,2.0,5.0,80,0.00,,CLR,0.00,VWS V14.01,2013-07-09 19:22:00,
2013-07-09 15:27:00,76.5,69.5,29.87,West,276,4.0,5.0,79,0.00,,CLR,0.00,VWS V14.01,2013-07-09 19:27:00,
2013-07-09 15:32:00,76.5,68.8,29.87,NW,323,5.0,8.0,77,0.00,,CLR,0.00,VWS V14.01,2013-07-09 19:32:00,
2013-07-09 15:37:00,76.1,69.1,29.86,NNW,331,4.0,5.0,79,0.00,,CLR,0.00,VWS V14.01,2013-07-09 19:37:00,
2013-07-09 15:42:00,76.1,68.8,29.86,North,350,8.0,8.0,78,0.00,,CLR,0.00,VWS V14.01,2013-07-09 19:42:00,
2013-07-09 15:47:00,75.8,68.5,29.86,West,275,8.0,10.0,78,0.00,,CLR,0.00,VWS V14.01,2013-07-09 19:47:00,
2013-07-09 15:52:00,75.3,68.3,29.86,WNW,289,7.0,7.0,79,0.00,,CLR,0.00,VWS V14.01,2013-07-09 19:52:00,
2013-07-09 15:57:00,74.7,68.1,29.86,NW,318,2.0,5.0,80,0.00,,CLR,0.00,VWS V14.01,2013-07-09 19:57:00,
2013-07-09 16:02:00,74.3,68.1,29.85,WNW,302,1.0,2.0,81,0.00,,BKN110,0.00,VWS V14.01,2013-07-09 20:02:00,
2013-07-09 16:07:00,74.0,68.2,29.85,West,268,3.0,6.0,82,0.00,,BKN110,0.00,VWS V14.01,2013-07-09 20:07:00,
2013-07-09 16:12:00,74.0,68.5,29.85,WSW,252,5.0,7.0,83,0.00,,BKN110,0.00,VWS V14.01,2013-07-09 20:12:00,
2013-07-09 16:17:00,74.2,68.4,29.85,NNW,334,2.0,3.0,82,0.00,,BKN110,0.00,VWS V14.01,2013-07-09 20:17:00,
2013-07-09 16:22:00,74.4,68.6,29.84,NE,34,4.0,5.0,82,0.00,,BKN110,0.00,VWS V14.01,2013-07-09 20:22:00,
2013-07-09 16:27:00,74.5,68.7,29.84,NNE,22,4.0,5.0,82,0.00,,BKN110,0.00,VWS V14.01,2013-07-09 20:27:00,
2013-07-09 16:32:00,75.0,68.4,29.84,North,349,1.0,2.0,80,0.00,,BKN110,0.00,VWS V14.01,2013-07-09 20:32:00,
2013-07-09 16:37:00,75.5,68.9,29.84,North,7,1.0,2.0,80,0.00,,BKN110,0.00,VWS V14.01,2013-07-09 20:37:00,
2013-07-09 16:43:00,75.7,68.7,29.84,NNW,332,2.0,3.0,79,0.00,,BKN110,0.00,VWS V14.01,2013-07-09 20:43:00,
2013-07-09 16:48:00,75.9,68.9,29.84,West,259,3.0,3.0,79,0.00,,BKN110,0.00,VWS V14.01,2013-07-09 20:48:00,
2013-07-09 16:53:00,76.0,69.4,29.84,WNW,288,1.0,2.0,80,0.00,,BKN110,0.00,VWS V14.01,2013-07-09 20:53:00,
2013-07-09 16:58:00,76.5,69.5,29.83,NNW,335,4.0,4.0,79,0.00,,BKN110,0.00,VWS V14.01,2013-07-09 20:58:00,
2013-07-09 17:03:00,77.0,69.6,29.83,NNW,335,3.0,3.0,78,0.00,,BKN110,0.00,VWS V14.01,2013-07-09 21:03:00,
2013-07-09 17:08:00,77.3,69.9,29.83,ENE,68,2.0,5.0,78,0.00,,-RA,0.00,VWS V14.01,2013-07-09 21:08:00,
2013-07-09 17:13:00,77.3,69.5,29.83,West,264,2.0,3.0,77,0.00,,-RA,0.00,VWS V14.01,2013-07-09 21:13:00,
2013-07-09 17:18:00,77.5,69.7,29.82,NW,317,0.0,1.0,77,0.00,,-RA,0.00,VWS V14.01,2013-07-09 21:18:00,
2013-07-09 17:23:00,77.7,69.9,29.82,West,263,4.0,4.0,77,0.00,,-RA,0.00,VWS V14.01,2013-07-09 21:23:00,
2013-07-09 17:28:00,78.1,70.3,29.82,West,267,7.0,7.0,77,0.00,,-RA,0.00,VWS V14.01,2013-07-09 21:28:00,
2013-07-09 17:33:00,78.2,70.4,29.82,NNW,327,4.0,6.0,77,0.00,,-RA,0.00,VWS V14.01,2013-07-09 21:33:00,
2013-07-09 17:38:00,78.2,70.0,29.81,North,357,4.0,4.0,76,0.00,,-RA,0.00,VWS V14.01,2013-07-09 21:38:00,
2013-07-09 17:43:00,77.7,69.5,29.81,NNW,345,6.0,6.0,76,0.00,,-RA,0.00,VWS V14.01,2013-07-09 21:43:00,
2013-07-09 17:48:00,77.1,69.3,29.81,NNW,333,5.0,8.0,77,0.00,,-RA,0.00,VWS V14.01,2013-07-09 21:48:00,
2013-07-09 17:53:00,76.6,69.2,29.81,North,353,4.0,6.0,78,0.00,,-RA,0.00,VWS V14.01,2013-07-09 21:53:00,
2013-07-09 17:58:00,76.5,69.5,29.81,NW,325,10.0,10.0,79,0.00,,-RA,0.00,VWS V14.01,2013-07-09 21:58:00,
2013-07-09 18:03:00,76.4,69.4,29.81,NNW,333,3.0,3.0,79,0.00,,RA,0.00,VWS V14.01,2013-07-09 22:03:00,
2013-07-09 18:08:00,76.1,68.8,29.81,North,2,3.0,4.0,78,0.00,,RA,0.00,VWS V14.01,2013-07-09 22:08:00,
2013-07-09 18:13:00,75.7,68.7,29.81,North,11,8.0,8.0,79,0.00,,RA,0.00,VWS V14.01,2013-07-09 22:13:00,
2013-07-09 18:18:00,75.3,69.1,29.80,North,351,2.0,3.0,81,0.00,,RA,0.00,VWS V14.01,2013-07-09 22:18:00,
2013-07-09 18:23:00,74.8,68.6,29.81,NNW,338,2.0,3.0,81,0.00,,RA,0.00,VWS V14.01,2013-07-09 22:23:00,
2013-07-09 18:28:00,74.3,68.1,29.80,NNW,328,4.0,4.0,81,0.00,,RA,0.00,VWS V14.01,2013-07-09 22:28:00,
2013-07-09 18:33:00,73.9,68.1,29.80,NW,306,4.0,4.0,82,0.00,,RA,0.00,VWS V14.01,2013-07-09 22:33:00,
2013-07-09 18:38:00,73.7,68.2,29.80,NNW,331,4.0,5.0,83,0.00,,RA,0.00,VWS V14.01,2013-07-09 22:38:00,
2013-07-09 18:43:00,73.5,68.0,29.80,North,357,4.0,4.0,83,0.00,,RA,0.00,VWS V14.01,2013-07-09 22:43:00,
2013-07-09 18:48:00,73.3,67.8,29.79,NNW,335,1.0,3.0,83,0.00,,RA,0.00,VWS V14.01,2013-07-09 22:48:00,
2013-07-09 18:53:00,73.2,68.1,29.79,NNE,32,2.0,3.0,84,0.00,,RA,0.00,VWS V14.01,2013-07-09 22:53:00,
2013-07-09 18:58:00,73.1,68.3,29.78,NE,55,2.0,3.0,85,0.00,,RA,0.00,VWS V14.01,2013-07-09 22:58:00,
2013-07-09 19:03:00,73.0,68.2,29.78,NE,54,2.0,4.0,85,0.00,,-RA,0.00,VWS V14.01,2013-07-09 23:03:00,
2013-07-09 19:08:00,72.9,68.1,29.78,East,98,1.0,1.0,85,0.00,,-RA,0.00,VWS V14.01,2013-07-09 23:08:00,
2013-07-09 19:13:00,73.0,68.6,29.78,SSE,166,2.0,2.0,86,0.00,,-RA,0.00,VWS V14.01,2013-07-09 23:13:00,
2013-07-09 19:18:00,73.1,68.7,29.77,East,81,1.0,2.0,86,0.00,,-RA,0.00,VWS V14.01,2013-07-09 23:18:00,
2013-07-09 19:23:00,73.3,69.2,29.77,East,82,2.0,3.0,87,0.00,,-RA,0.00,VWS V14.01,2013-07-09 23:23:00,
2013-07-09 19:24:00,73.4,69.3,29.77,NE,55,3.0,3.0,87,0.00,,-RA,0.00,VWS V14.01,2013-07-09 23:24:00,
2013-07-09 19:29:00,73.6,69.2,29.77,ENE,76,1.0,1.0,86,0.00,,-RA,0.00,VWS V14.01,2013-07-09 23:29:00,
2013-07-09 19:34:00,73.7,69.3,29.77,East,84,1.0,2.0,86,0.00,,-RA,0.00,VWS V14.01,2013-07-09 23:34:00,
2013-07-09 19:39:00,73.9,69.4,29.77,East,92,2.0,2.0,86,0.00,,-RA,0.00,VWS V14.01,2013-07-09 23:39:00,
2013-07-09 19:44:00,73.9,69.1,29.77,East,80,0.0,0.0,85,0.00,,-RA,0.00,VWS V14.01,2013-07-09 23:44:00,
2013-07-09 19:49:00,74.0,69.6,29.77,ENE,62,2.0,2.0,86,0.00,,-RA,0.00,VWS V14.01,2013-07-09 23:49:00,
2013-07-09 19:54:00,74.0,69.6,29.76,ENE,71,1.0,2.0,86,0.00,,-RA,0.00,VWS V14.01,2013-07-09 23:54:00,
2013-07-09 19:59:00,73.9,69.4,29.76,ENE,78,0.0,1.0,86,0.00,,-RA,0.00,VWS V14.01,2013-07-09 23:59:00,
2013-07-09 20:04:00,73.9,69.4,29.76,East,81,2.0,3.0,86,0.00,,-RA,0.00,VWS V14.01,2013-07-10 00:04:00,
2013-07-09 20:10:00,73.8,69.3,29.76,East,81,2.0,3.0,86,0.00,,-RA,0.00,VWS V14.01,2013-07-10 00:10:00,
2013-07-09 20:15:00,73.7,69.3,29.76,East,84,3.0,4.0,86,0.00,,-RA,0.00,VWS V14.01,2013-07-10 00:15:00,
2013-07-09 20:20:00,73.6,69.2,29.75,East,94,1.0,1.0,86,0.00,,-RA,0.00,VWS V14.01,2013-07-10 00:20:00,
2013-07-09 20:25:00,73.6,69.2,29.75,East,94,2.0,2.0,86,0.00,,-RA,0.00,VWS V14.01,2013-07-10 00:25:00,
2013-07-09 20:30:00,73.5,69.4,29.75,East,94,1.0,2.0,87,0.00,,-RA,0.00,VWS V14.01,2013-07-10 00:30:00,
2013-07-09 20:35:00,73.5,69.4,29.75,East,94,1.0,1.0,87,0.00,,-RA,0.00,VWS V14.01,2013-07-10 00:35:00,
2013-07-09 20:40:00,73.4,69.3,29.75,East,94,0.0,1.0,87,0.00,,-RA,0.00,VWS V14.01,2013-07-10 00:40:00,
2013-07-09 20:45:00,73.4,69.3,29.75,WSW,240,2.0,2.0,87,0.00,,-RA,0.00,VWS V14.01,2013-07-10 00:45:00,
2013-07-09 20:50:00,73.3,69.5,29.75,WSW,240,0.0,0.0,88,0.00,,-RA,0.00,VWS V14.01,2013-07-10 00:50:00,
2013-07-09 20:55:00,73.2,69.4,29.74,ESE,123,2.0,3.0,88,0.01,,-RA,0.01,VWS V14.01,2013-07-10 00:55:00,
2013-07-09 21:00:00,72.9,69.1,29.74,SE,136,1.0,1.0,88,0.01,,-RA,0.01,VWS V14.01,2013-07-10 01:00:00,
2013-07-09 21:05:00,72.8,69.4,29.74,SE,136,0.0,1.0,89,0.01,,-RA,0.01,VWS V14.01,2013-07-10 01:05:00,
2013-07-09 21:10:00,72.6,69.5,29.75,NNW,331,1.0,1.0,90,0.01,,-RA,0.01,VWS V14.01,2013-07-10 01:10:00,
2013-07-09 21:15:00,72.4,69.3,29.74,NNW,333,1.0,1.0,90,0.01,,-RA,0.01,VWS V14.01,2013-07-10 01:15:00,
2013-07-09 21:20:00,72.2,69.4,29.74,NNW,333,1.0,2.0,91,0.01,,-RA,0.01,VWS V14.01,2013-07-10 01:20:00,
2013-07-09 21:25:00,72.0,69.2,29.74,NNW,333,0.0,0.0,91,0.01,,-RA,0.01,VWS V14.01,2013-07-10 01:25:00,
2013-07-09 21:30:00,71.9,69.1,29.74,NNW,333,1.0,1.0,91,0.01,,-RA,0.01,VWS V14.01,2013-07-10 01:30:00,
2013-07-09 21:35:00,71.8,69.3,29.74,WSW,243,1.0,1.0,92,0.01,,-RA,0.01,VWS V14.01,2013-07-10 01:35:00,
2013-07-09 21:40:00,71.7,69.3,29.73,WSW,243,1.0,1.0,92,0.01,,-RA,0.01,VWS V14.01,2013-07-10 01:40:00,
2013-07-09 21:45:00,71.5,69.4,29.73,SE,128,2.0,2.0,93,0.01,,-RA,0.01,VWS V14.01,2013-07-10 01:45:00,
2013-07-09 21:50:00,71.2,69.4,29.72,East,84,3.0,3.0,94,0.01,,-RA,0.01,VWS V14.01,2013-07-10 01:50:00,
2013-07-09 21:55:00,70.8,69.0,29.73,ESE,103,2.0,2.0,94,0.01,,-RA,0.01,VWS V14.01,2013-07-10 01:55:00,
2013-07-09 22:00:00,70.7,68.9,29.73,ESE,104,1.0,1.0,94,0.01,,-RA,0.01,VWS V14.01,2013-07-10 02:00:00,
2013-07-09 22:05:00,70.6,68.8,29.72,ESE,104,1.0,2.0,94,0.00,,OVC038,0.01,VWS V14.01,2013-07-10 02:05:00,
2013-07-09 22:10:00,70.5,68.7,29.72,ESE,104,2.0,2.0,94,0.00,,OVC038,0.01,VWS V14.01,2013-07-10 02:10:00,
2013-07-09 22:15:00,70.5,68.7,29.72,ESE,121,3.0,3.0,94,0.00,,OVC038,0.01,VWS V14.01,2013-07-10 02:15:00,
2013-07-09 22:20:00,70.4,68.9,29.72,ESE,117,2.0,2.0,95,0.00,,OVC038,0.01,VWS V14.01,2013-07-10 02:20:00,
2013-07-09 22:25:00,70.3,68.8,29.72,ESE,123,2.0,2.0,95,0.00,,OVC038,0.01,VWS V14.01,2013-07-10 02:25:00,
2013-07-09 22:30:00,70.3,68.8,29.72,SE,136,1.0,1.0,95,0.00,,OVC038,0.01,VWS V14.01,2013-07-10 02:30:00,
2013-07-09 22:35:00,70.2,68.7,29.72,SE,136,1.0,2.0,95,0.00,,OVC038,0.01,VWS V14.01,2013-07-10 02:35:00,
2013-07-09 22:40:00,70.2,68.7,29.72,SE,136,2.0,2.0,95,0.00,,OVC038,0.01,VWS V14.01,2013-07-10 02:40:00,
2013-07-09 22:45:00,70.1,68.6,29.72,ESE,117,1.0,2.0,95,0.00,,OVC038,0.01,VWS V14.01,2013-07-10 02:45:00,
2013-07-09 22:50:00,70.1,68.6,29.72,SSE,148,2.0,2.0,95,0.00,,OVC038,0.01,VWS V14.01,2013-07-10 02:50:00,
2013-07-09 22:55:00,70.0,68.5,29.71,South,170,0.0,1.0,95,0.00,,OVC038,0.01,VWS V14.01,2013-07-10 02:55:00,
2013-07-09 23:00:00,70.0,68.5,29.71,SSE,159,1.0,2.0,95,0.00,,OVC038,0.01,VWS V14.01,2013-07-10 03:00:00,
2013-07-09 23:05:00,69.9,68.4,29.71,SSE,159,0.0,0.0,95,0.00,,OVC050,0.01,VWS V14.01,2013-07-10 03:05:00,
2013-07-09 23:10:00,69.9,68.4,29.70,SSE,158,2.0,2.0,95,0.00,,OVC050,0.01,VWS V14.01,2013-07-10 03:10:00,
2013-07-09 23:15:00,69.9,68.7,29.70,SSW,210,2.0,2.0,96,0.00,,OVC050,0.01,VWS V14.01,2013-07-10 03:15:00,
2013-07-09 23:20:00,69.9,68.7,29.69,South,171,2.0,4.0,96,0.01,,OVC050,0.02,VWS V14.01,2013-07-10 03:20:00,
2013-07-09 23:25:00,69.9,68.7,29.69,SW,229,2.0,3.0,96,0.01,,OVC050,0.02,VWS V14.01,2013-07-10 03:25:00,
2013-07-09 23:30:00,70.1,68.9,29.69,SSE,148,3.0,4.0,96,0.01,,OVC050,0.02,VWS V14.01,2013-07-10 03:30:00,
2013-07-09 23:35:00,70.1,68.9,29.68,SSW,204,3.0,4.0,96,0.01,,OVC050,0.02,VWS V14.01,2013-07-10 03:35:00,
2013-07-09 23:40:00,70.2,69.0,29.68,SE,126,1.0,6.0,96,0.02,,OVC050,0.03,VWS V14.01,2013-07-10 03:40:00,
2013-07-09 23:45:00,70.2,69.0,29.68,WSW,244,3.0,3.0,96,0.02,,OVC050,0.03,VWS V14.01,2013-07-10 03:45:00,
2013-07-09 23:51:00,70.2,69.0,29.68,WSW,243,1.0,2.0,96,0.02,,OVC050,0.03,VWS V14.01,2013-07-10 03:51:00,
2013-07-09 23:56:00,70.2,69.0,29.69,WNW,282,1.0,2.0,96,0.02,,OVC050,0.03,VWS V14.01,2013-07-10 03:56:00,